| time (UTC) | temp C | wind direction | speed KPH | gust KPH | rain 1hr cm | rain 24hr cm | rain mn cm | humidity % | barometer mb |
| 20260904155520 | 17 | 342 | 6.4 | 16.1 | 0.00 | 0.03 | 0.00 | 70 | 985.2 |
| 20260904155018 | 17 | 360 | 6.4 | 16.1 | 0.00 | 0.03 | 0.00 | 71 | 985.2 |
| 20260904154516 | 16 | 327 | 8.0 | 14.5 | 0.00 | 0.03 | 0.00 | 71 | 985.4 |
| 20260904154016 | 16 | 360 | 8.0 | 14.5 | 0.00 | 0.03 | 0.00 | 71 | 985.4 |
| 20260904153517 | 16 | 9 | 6.4 | 12.9 | 0.00 | 0.03 | 0.00 | 71 | 985.4 |
| 20260904153016 | 16 | 332 | 8.0 | 12.9 | 0.00 | 0.03 | 0.00 | 71 | 985.4 |
| 20260904152514 | 16 | 341 | 3.2 | 9.7 | 0.00 | 0.03 | 0.00 | 71 | 985.3 |
| 20260904152014 | 16 | 339 | 4.8 | 9.7 | 0.00 | 0.03 | 0.00 | 71 | 985.4 |
| 20260904151514 | 16 | 345 | 3.2 | 9.7 | 0.00 | 0.03 | 0.00 | 71 | 985.4 |
| 20260904151013 | 16 | 340 | 4.8 | 9.7 | 0.00 | 0.03 | 0.00 | 71 | 985.3 |
| 20260904150512 | 16 | 360 | 6.4 | 12.9 | 0.00 | 0.03 | 0.00 | 71 | 985.3 |
| 20260904150013 | 16 | 345 | 6.4 | 12.9 | 0.00 | 0.03 | 0.00 | 71 | 985.2 |
| 20260904145510 | 15 | 347 | 6.4 | 9.7 | 0.00 | 0.03 | 0.00 | 71 | 985.2 |
| 20260904145009 | 15 | 300 | 6.4 | 9.7 | 0.00 | 0.03 | 0.00 | 71 | 985.2 |
| 20260904144509 | 15 | 306 | 4.8 | 9.7 | 0.00 | 0.03 | 0.00 | 71 | 985.2 |
| 20260904144008 | 15 | 360 | 4.8 | 9.7 | 0.00 | 0.03 | 0.00 | 71 | 985.2 |
| 20260904143508 | 15 | 351 | 4.8 | 12.9 | 0.00 | 0.03 | 0.00 | 71 | 985.2 |
| 20260904143008 | 15 | 344 | 4.8 | 12.9 | 0.00 | 0.03 | 0.00 | 71 | 985.3 |
| 20260904142508 | 15 | 360 | 6.4 | 9.7 | 0.00 | 0.03 | 0.00 | 71 | 985.4 |
| 20260904142011 | 15 | 274 | 3.2 | 9.7 | 0.00 | 0.03 | 0.00 | 71 | 985.4 |
| 20260904141507 | 15 | 281 | 4.8 | 8.0 | 0.00 | 0.03 | 0.00 | 71 | 985.3 |
| 20260904141006 | 14 | 296 | 4.8 | 8.0 | 0.00 | 0.03 | 0.00 | 71 | 985.3 |
| 20260904140506 | 14 | 303 | 1.6 | 6.4 | 0.00 | 0.03 | 0.00 | 71 | 985.3 |
| 20260904140007 | 14 | 360 | 1.6 | 8.0 | 0.00 | 0.03 | 0.00 | 71 | 985.3 |
| 20260904135507 | 14 | 331 | 3.2 | 8.0 | 0.00 | 0.03 | 0.00 | 71 | 985.3 |
| 20260904135005 | 13 | 360 | 3.2 | 9.7 | 0.00 | 0.03 | 0.00 | 71 | 985.3 |
| 20260904134508 | 13 | 277 | 4.8 | 9.7 | 0.00 | 0.03 | 0.00 | 71 | 985.2 |
| 20260904134006 | 13 | 298 | 3.2 | 8.0 | 0.00 | 0.03 | 0.00 | 71 | 985.1 |
| 20260904133507 | 13 | 360 | 3.2 | 6.4 | 0.00 | 0.03 | 0.00 | 71 | 985.2 |
| 20260904133004 | 13 | 306 | 3.2 | 6.4 | 0.00 | 0.03 | 0.00 | 71 | 985.1 |
| 20260904132504 | 13 | 307 | 3.2 | 9.7 | 0.00 | 0.03 | 0.00 | 71 | 985.0 |
| 20260904132003 | 13 | 283 | 4.8 | 9.7 | 0.00 | 0.03 | 0.00 | 71 | 985.0 |
| 20260904131504 | 13 | 282 | 1.6 | 6.4 | 0.00 | 0.03 | 0.00 | 71 | 985.0 |
| 20260904131004 | 13 | 300 | 3.2 | 6.4 | 0.00 | 0.03 | 0.00 | 71 | 985.0 |
| 20260904130507 | 13 | 287 | 1.6 | 6.4 | 0.00 | 0.03 | 0.00 | 71 | 985.0 |
| 20260904130103 | 13 | 360 | 3.2 | 4.8 | 0.00 | 0.03 | 0.00 | 71 | 985.1 |
| 20260904125502 | 12 | 267 | 3.2 | 4.8 | 0.00 | 0.03 | 0.00 | 71 | 985.0 |
| 20260904125002 | 12 | 294 | 1.6 | 6.4 | 0.00 | 0.03 | 0.00 | 71 | 984.9 |
| 20260904124613 | 12 | 292 | 1.6 | 6.4 | 0.00 | 0.03 | 0.00 | 71 | 984.8 |
| 20260904124059 | 12 | 297 | 1.6 | 6.4 | 0.00 | 0.03 | 0.00 | 71 | 984.8 |
| 20260904123603 | 12 | 288 | 1.6 | 4.8 | 0.00 | 0.03 | 0.00 | 71 | 984.7 |
| 20260904123103 | 12 | 287 | 0.0 | 0.0 | 0.00 | 0.03 | 0.00 | 71 | 984.7 |
| 20260904122559 | 12 | 286 | 0.0 | 0.0 | 0.00 | 0.03 | 0.00 | 71 | 984.7 |
| 20260904122059 | 12 | 286 | 0.0 | 0.0 | 0.00 | 0.03 | 0.00 | 71 | 984.6 |
| 20260904121558 | 12 | 275 | 0.0 | 0.0 | 0.00 | 0.03 | 0.00 | 71 | 984.6 |
| 20260904121103 | 12 | 275 | 0.0 | 1.6 | 0.00 | 0.03 | 0.00 | 71 | 984.6 |
| 20260904120556 | 12 | 275 | 0.0 | 3.2 | 0.00 | 0.03 | 0.00 | 71 | 984.4 |
| 20260904120056 | 12 | 275 | 0.0 | 4.8 | 0.00 | 0.03 | 0.00 | 71 | 984.4 |
| 20260904115600 | 12 | 275 | 1.6 | 4.8 | 0.00 | 0.03 | 0.00 | 71 | 984.3 |
| 20260904115059 | 12 | 284 | 0.0 | 3.2 | 0.00 | 0.03 | 0.00 | 71 | 984.2 |
| 20260904114601 | 12 | 284 | 0.0 | 4.8 | 0.00 | 0.03 | 0.00 | 71 | 984.3 |
| 20260904114055 | 12 | 284 | 1.6 | 4.8 | 0.00 | 0.03 | 0.00 | 71 | 984.3 |
| 20260904113554 | 12 | 284 | 3.2 | 6.4 | 0.00 | 0.03 | 0.00 | 71 | 984.2 |
| 20260904113053 | 12 | 268 | 3.2 | 8.0 | 0.00 | 0.03 | 0.00 | 71 | 984.2 |
| 20260904112552 | 12 | 268 | 4.8 | 8.0 | 0.00 | 0.03 | 0.00 | 71 | 983.9 |
| 20260904112052 | 12 | 254 | 4.8 | 9.7 | 0.00 | 0.03 | 0.00 | 71 | 983.8 |
| 20260904111551 | 12 | 248 | 3.2 | 8.0 | 0.00 | 0.03 | 0.00 | 71 | 983.7 |
| 20260904111052 | 12 | 254 | 3.2 | 8.0 | 0.00 | 0.03 | 0.00 | 71 | 983.7 |
| 20260904110550 | 12 | 261 | 3.2 | 6.4 | 0.00 | 0.03 | 0.00 | 71 | 983.7 |
| 20260904110050 | 12 | 254 | 3.2 | 6.4 | 0.00 | 0.03 | 0.00 | 71 | 983.6 |
| 20260904105549 | 12 | 244 | 1.6 | 4.8 | 0.00 | 0.03 | 0.00 | 71 | 983.6 |
| 20260904105050 | 12 | 234 | 1.6 | 4.8 | 0.00 | 0.03 | 0.00 | 71 | 983.6 |
| 20260904104550 | 12 | 234 | 3.2 | 6.4 | 0.00 | 0.03 | 0.00 | 71 | 983.6 |
| 20260904104049 | 12 | 235 | 4.8 | 6.4 | 0.00 | 0.03 | 0.00 | 71 | 983.6 |
| 20260904103548 | 12 | 277 | 1.6 | 4.8 | 0.00 | 0.03 | 0.00 | 70 | 983.6 |
| 20260904103049 | 12 | 277 | 3.2 | 4.8 | 0.00 | 0.03 | 0.00 | 71 | 983.6 |
| 20260904102552 | 12 | 277 | 0.0 | 3.2 | 0.00 | 0.03 | 0.00 | 71 | 983.4 |
| 20260904102050 | 12 | 277 | 1.6 | 3.2 | 0.00 | 0.03 | 0.00 | 70 | 983.3 |
| 20260904101547 | 12 | 277 | 0.0 | 3.2 | 0.00 | 0.03 | 0.00 | 71 | 983.2 |
| 20260904101046 | 12 | 277 | 1.6 | 4.8 | 0.00 | 0.03 | 0.00 | 70 | 983.4 |
| 20260904100546 | 12 | 277 | 3.2 | 4.8 | 0.00 | 0.03 | 0.00 | 70 | 983.3 |
| 20260904100056 | 12 | 277 | 0.0 | 3.2 | 0.00 | 0.03 | 0.00 | 71 | 983.1 |
| 20260904095545 | 12 | 277 | 0.0 | 3.2 | 0.00 | 0.03 | 0.00 | 71 | 983.1 |
| 20260904095044 | 12 | 277 | 1.6 | 3.2 | 0.00 | 0.03 | 0.00 | 70 | 983.1 |
| 20260904094554 | 12 | 277 | 1.6 | 3.2 | 0.00 | 0.03 | 0.00 | 70 | 983.0 |
| 20260904094044 | 12 | 277 | 0.0 | 4.8 | 0.00 | 0.03 | 0.00 | 70 | 983.1 |
| 20260904093545 | 12 | 277 | 3.2 | 4.8 | 0.00 | 0.03 | 0.00 | 70 | 983.1 |
| 20260904093043 | 12 | 23 | 1.6 | 3.2 | 0.00 | 0.03 | 0.00 | 70 | 983.0 |
| 20260904092641 | 13 | 23 | 1.6 | 3.2 | 0.00 | 0.03 | 0.00 | 70 | 982.9 |
| 20260904092040 | 13 | 23 | 1.6 | 3.2 | 0.00 | 0.03 | 0.00 | 70 | 982.8 |
| 20260904091539 | 13 | 23 | 1.6 | 3.2 | 0.00 | 0.03 | 0.00 | 70 | 982.7 |
| 20260904091039 | 13 | 23 | 0.0 | 3.2 | 0.00 | 0.03 | 0.00 | 70 | 982.7 |
| 20260904090536 | 13 | 23 | 0.0 | 0.0 | 0.00 | 0.03 | 0.00 | 70 | 982.6 |
| 20260904090048 | 13 | 23 | 0.0 | 0.0 | 0.00 | 0.03 | 0.00 | 70 | 982.7 |
| 20260904085536 | 13 | 23 | 0.0 | 0.0 | 0.00 | 0.03 | 0.00 | 70 | 982.6 |
| 20260904085035 | 13 | 23 | 0.0 | 0.0 | 0.00 | 0.03 | 0.00 | 70 | 982.6 |
| 20260904084536 | 13 | 23 | 0.0 | 0.0 | 0.00 | 0.03 | 0.00 | 69 | 982.6 |
| 20260904084033 | 14 | 23 | 0.0 | 1.6 | 0.00 | 0.03 | 0.00 | 69 | 982.5 |
| 20260904083536 | 14 | 23 | 0.0 | 1.6 | 0.00 | 0.03 | 0.00 | 70 | 982.4 |
| 20260904083105 | 14 | 23 | 0.0 | 1.6 | 0.00 | 0.03 | 0.00 | 70 | 982.4 |
| 20260904082535 | 14 | 23 | 0.0 | 3.2 | 0.00 | 0.03 | 0.00 | 70 | 982.4 |
| 20260904082033 | 14 | 23 | 0.0 | 3.2 | 0.00 | 0.03 | 0.00 | 70 | 982.5 |
| 20260904081534 | 14 | 23 | 0.0 | 1.6 | 0.00 | 0.03 | 0.00 | 69 | 982.5 |
| 20260904081031 | 14 | 23 | 0.0 | 1.6 | 0.00 | 0.03 | 0.00 | 69 | 982.5 |
| 20260904080532 | 14 | 23 | 0.0 | 0.0 | 0.00 | 0.03 | 0.00 | 70 | 982.5 |
| 20260904080031 | 14 | 23 | 0.0 | 0.0 | 0.00 | 0.03 | 0.00 | 70 | 982.4 |
| 20260904075531 | 14 | 23 | 0.0 | 0.0 | 0.00 | 0.03 | 0.00 | 69 | 982.5 |
| 20260904075032 | 14 | 23 | 0.0 | 1.6 | 0.00 | 0.03 | 0.00 | 69 | 982.4 |
| 20260904074532 | 14 | 23 | 0.0 | 1.6 | 0.00 | 0.03 | 0.00 | 69 | 982.3 |
| 20260904074028 | 15 | 23 | 0.0 | 0.0 | 0.00 | 0.03 | 0.00 | 69 | 982.4 |
| 20260904073527 | 15 | 23 | 0.0 | 0.0 | 0.00 | 0.03 | 0.00 | 69 | 982.4 |
| 20260904073026 | 15 | 23 | 0.0 | 1.6 | 0.00 | 0.03 | 0.00 | 69 | 982.3 |
| 20260904072526 | 15 | 23 | 0.0 | 1.6 | 0.00 | 0.03 | 0.00 | 69 | 982.3 |
| 20260904072030 | 15 | 23 | 0.0 | 0.0 | 0.00 | 0.03 | 0.00 | 69 | 982.3 |
| 20260904071526 | 15 | 23 | 0.0 | 1.6 | 0.00 | 0.03 | 0.00 | 69 | 982.4 |
| 20260904071024 | 15 | 23 | 0.0 | 1.6 | 0.00 | 0.03 | 0.00 | 69 | 982.3 |
| 20260904070524 | 15 | 23 | 0.0 | 1.6 | 0.00 | 0.03 | 0.00 | 69 | 982.3 |
| 20260904070044 | 15 | 23 | 0.0 | 1.6 | 0.00 | 0.03 | 0.00 | 69 | 982.3 |
| 20260904065523 | 15 | 23 | 0.0 | 1.6 | 0.00 | 0.03 | 0.00 | 69 | 982.3 |
| 20260904065026 | 15 | 23 | 0.0 | 1.6 | 0.00 | 0.03 | 0.00 | 69 | 982.3 |
| 20260904064524 | 15 | 23 | 0.0 | 3.2 | 0.00 | 0.03 | 0.00 | 69 | 982.2 |
| 20260904064022 | 15 | 23 | 0.0 | 1.6 | 0.00 | 0.03 | 0.00 | 68 | 982.2 |
| 20260904063529 | 15 | 25 | 0.0 | 0.0 | 0.00 | 0.03 | 0.00 | 68 | 982.2 |
| 20260904063027 | 15 | 25 | 0.0 | 0.0 | 0.00 | 0.03 | 0.00 | 68 | 982.3 |
| 20260904062520 | 15 | 25 | 0.0 | 0.0 | 0.00 | 0.03 | 0.00 | 68 | 982.3 |
| 20260904062020 | 16 | 25 | 0.0 | 0.0 | 0.00 | 0.03 | 0.00 | 68 | 982.3 |
| 20260904061525 | 16 | 25 | 0.0 | 0.0 | 0.00 | 0.03 | 0.00 | 68 | 982.2 |
| 20260904061018 | 16 | 25 | 0.0 | 0.0 | 0.00 | 0.03 | 0.00 | 68 | 982.3 |
| 20260904060521 | 16 | 25 | 0.0 | 0.0 | 0.00 | 0.03 | 0.00 | 67 | 982.4 |
| 20260904060018 | 16 | 25 | 0.0 | 0.0 | 0.00 | 0.03 | 0.00 | 67 | 982.5 |
| 20260904055517 | 16 | 25 | 0.0 | 0.0 | 0.00 | 0.03 | 0.00 | 67 | 982.5 |
| 20260904055016 | 16 | 25 | 0.0 | 0.0 | 0.00 | 0.03 | 0.00 | 67 | 982.4 |
| 20260904054516 | 16 | 25 | 0.0 | 0.0 | 0.00 | 0.03 | 0.00 | 67 | 982.3 |
| 20260904054016 | 16 | 25 | 0.0 | 1.6 | 0.00 | 0.03 | 0.00 | 67 | 982.3 |
| 20260904053514 | 16 | 25 | 0.0 | 1.6 | 0.00 | 0.03 | 0.00 | 67 | 982.5 |
| 20260904053033 | 16 | 25 | 0.0 | 3.2 | 0.00 | 0.03 | 0.00 | 67 | 982.5 |
| 20260904052513 | 16 | 44 | 0.0 | 3.2 | 0.00 | 0.03 | 0.00 | 66 | 982.2 |
| 20260904052013 | 16 | 42 | 0.0 | 3.2 | 0.00 | 0.03 | 0.00 | 66 | 982.2 |
| 20260904051522 | 17 | 40 | 0.0 | 3.2 | 0.00 | 0.03 | 0.00 | 66 | 982.2 |
| 20260904051010 | 17 | 40 | 0.0 | 3.2 | 0.00 | 0.03 | 0.00 | 66 | 982.1 |
| 20260904050512 | 17 | 40 | 0.0 | 1.6 | 0.00 | 0.03 | 0.00 | 66 | 982.3 |
| 20260904050009 | 17 | 40 | 0.0 | 1.6 | 0.00 | 0.03 | 0.00 | 66 | 982.5 |
| 20260904045509 | 17 | 40 | 0.0 | 1.6 | 0.00 | 0.03 | 0.03 | 66 | 982.2 |
| 20260904045009 | 17 | 40 | 0.0 | 1.6 | 0.00 | 0.03 | 0.03 | 66 | 982.0 |
| 20260904044509 | 17 | 40 | 0.0 | 4.8 | 0.00 | 0.03 | 0.03 | 66 | 981.9 |
| 20260904044009 | 17 | 40 | 0.0 | 4.8 | 0.00 | 0.03 | 0.03 | 65 | 981.7 |
| 20260904043508 | 17 | 46 | 0.0 | 4.8 | 0.00 | 0.03 | 0.03 | 65 | 981.7 |
| 20260904043008 | 17 | 47 | 0.0 | 4.8 | 0.00 | 0.03 | 0.03 | 65 | 981.8 |
| 20260904042510 | 17 | 47 | 0.0 | 6.4 | 0.00 | 0.03 | 0.03 | 65 | 981.7 |
| 20260904042008 | 17 | 67 | 0.0 | 6.4 | 0.00 | 0.03 | 0.03 | 65 | 981.7 |
| 20260904041507 | 17 | 42 | 0.0 | 6.4 | 0.00 | 0.03 | 0.03 | 65 | 981.8 |
| 20260904041007 | 17 | 62 | 0.0 | 4.8 | 0.00 | 0.03 | 0.03 | 65 | 981.7 |
| 20260904040507 | 17 | 32 | 0.0 | 1.6 | 0.00 | 0.03 | 0.03 | 65 | 981.8 |
| 20260904040007 | 17 | 32 | 0.0 | 4.8 | 0.00 | 0.03 | 0.03 | 64 | 981.7 |
| 20260904035506 | 17 | 26 | 0.0 | 4.8 | 0.00 | 0.03 | 0.03 | 64 | 981.7 |
| 20260904035007 | 18 | 29 | 0.0 | 4.8 | 0.00 | 0.03 | 0.03 | 64 | 981.9 |
| 20260904034507 | 18 | 23 | 1.6 | 4.8 | 0.00 | 0.03 | 0.03 | 64 | 982.0 |
| 20260904034006 | 18 | 355 | 0.0 | 3.2 | 0.00 | 0.03 | 0.03 | 64 | 981.9 |
| 20260904033506 | 18 | 355 | 0.0 | 3.2 | 0.00 | 0.03 | 0.03 | 64 | 982.0 |
| 20260904033007 | 18 | 355 | 0.0 | 1.6 | 0.00 | 0.03 | 0.03 | 64 | 982.0 |
| 20260904032508 | 18 | 355 | 0.0 | 1.6 | 0.00 | 0.03 | 0.03 | 64 | 981.9 |
| 20260904032007 | 18 | 355 | 0.0 | 1.6 | 0.00 | 0.03 | 0.03 | 64 | 981.9 |
| 20260904031506 | 18 | 355 | 0.0 | 1.6 | 0.00 | 0.03 | 0.03 | 64 | 981.8 |
| 20260904031005 | 18 | 355 | 0.0 | 1.6 | 0.00 | 0.03 | 0.03 | 64 | 981.8 |
| 20260904030505 | 18 | 355 | 0.0 | 1.6 | 0.00 | 0.03 | 0.03 | 64 | 981.8 |
| 20260904030005 | 18 | 355 | 0.0 | 1.6 | 0.00 | 0.03 | 0.03 | 64 | 981.8 |
| 20260904025505 | 18 | 355 | 0.0 | 1.6 | 0.00 | 0.03 | 0.03 | 64 | 981.7 |
| 20260904025005 | 18 | 355 | 0.0 | 1.6 | 0.00 | 0.03 | 0.03 | 64 | 981.8 |
| 20260904024505 | 18 | 355 | 0.0 | 1.6 | 0.00 | 0.03 | 0.03 | 64 | 981.7 |
| 20260904024005 | 18 | 355 | 0.0 | 3.2 | 0.00 | 0.03 | 0.03 | 64 | 981.6 |
| 20260904023505 | 18 | 355 | 0.0 | 3.2 | 0.00 | 0.03 | 0.03 | 64 | 981.5 |
| 20260904023004 | 18 | 340 | 0.0 | 3.2 | 0.00 | 0.03 | 0.03 | 64 | 981.5 |
| 20260904022505 | 18 | 340 | 0.0 | 3.2 | 0.00 | 0.03 | 0.03 | 64 | 981.7 |
| 20260904022005 | 18 | 342 | 0.0 | 3.2 | 0.00 | 0.03 | 0.03 | 64 | 981.5 |
| 20260904021503 | 18 | 342 | 0.0 | 1.6 | 0.00 | 0.03 | 0.03 | 64 | 981.2 |
| 20260904021009 | 18 | 342 | 0.0 | 1.6 | 0.00 | 0.03 | 0.03 | 64 | 981.2 |
| 20260904020503 | 18 | 342 | 0.0 | 1.6 | 0.00 | 0.03 | 0.03 | 64 | 981.2 |
| 20260904020004 | 18 | 342 | 0.0 | 1.6 | 0.00 | 0.03 | 0.03 | 64 | 981.1 |
| 20260904015504 | 18 | 342 | 0.0 | 1.6 | 0.00 | 0.03 | 0.03 | 63 | 981.0 |
| 20260904015003 | 18 | 342 | 0.0 | 3.2 | 0.00 | 0.03 | 0.03 | 63 | 981.0 |
| 20260904014503 | 18 | 342 | 0.0 | 3.2 | 0.00 | 0.03 | 0.03 | 63 | 980.8 |
| 20260904014005 | 18 | 342 | 1.6 | 4.8 | 0.00 | 0.03 | 0.03 | 63 | 980.8 |
| 20260904013502 | 18 | 342 | 1.6 | 4.8 | 0.00 | 0.03 | 0.03 | 63 | 980.7 |
| 20260904013005 | 18 | 342 | 1.6 | 4.8 | 0.00 | 0.03 | 0.03 | 62 | 980.6 |
| 20260904012503 | 18 | 338 | 0.0 | 6.4 | 0.00 | 0.03 | 0.03 | 62 | 980.6 |
| 20260904012003 | 18 | 338 | 1.6 | 6.4 | 0.00 | 0.03 | 0.03 | 62 | 980.4 |
| 20260904011502 | 19 | 5 | 0.0 | 4.8 | 0.00 | 0.03 | 0.03 | 62 | 980.3 |
| 20260904011003 | 19 | 46 | 0.0 | 4.8 | 0.00 | 0.03 | 0.03 | 62 | 980.2 |
| 20260904010502 | 19 | 48 | 0.0 | 4.8 | 0.00 | 0.03 | 0.03 | 62 | 980.3 |
| 20260904010002 | 19 | 74 | 0.0 | 4.8 | 0.00 | 0.03 | 0.03 | 62 | 980.3 |
| 20260904005501 | 19 | 30 | 0.0 | 4.8 | 0.00 | 0.03 | 0.03 | 62 | 980.3 |
| 20260904005002 | 19 | 34 | 1.6 | 4.8 | 0.00 | 0.03 | 0.03 | 62 | 980.4 |
| 20260904004501 | 19 | 24 | 0.0 | 4.8 | 0.00 | 0.03 | 0.03 | 63 | 980.3 |
| 20260904004001 | 19 | 37 | 0.0 | 4.8 | 0.00 | 0.03 | 0.03 | 63 | 980.5 |
| 20260904003501 | 19 | 22 | 1.6 | 6.4 | 0.00 | 0.03 | 0.03 | 63 | 980.6 |
| 20260904003001 | 19 | 5 | 0.0 | 6.4 | 0.00 | 0.03 | 0.03 | 63 | 980.6 |
| 20260904002502 | 19 | 9 | 1.6 | 6.4 | 0.00 | 0.03 | 0.03 | 63 | 980.7 |
| 20260904002002 | 19 | 294 | 1.6 | 8.0 | 0.00 | 0.03 | 0.03 | 62 | 980.9 |
| 20260904001607 | 20 | 288 | 3.2 | 9.7 | 0.00 | 0.03 | 0.03 | 62 | 980.6 |
| 20260904001100 | 20 | 300 | 1.6 | 6.4 | 0.00 | 0.03 | 0.03 | 62 | 980.6 |
| 20260904000601 | 20 | 307 | 3.2 | 4.8 | 0.00 | 0.03 | 0.03 | 62 | 980.6 |
| 20260904000109 | 20 | 298 | 0.0 | 4.8 | 0.00 | 0.03 | 0.03 | 61 | 980.6 |
| 20260903235600 | 20 | 291 | 0.0 | 3.2 | 0.00 | 0.03 | 0.03 | 61 | 980.6 |
| 20260903235100 | 20 | 291 | 0.0 | 1.6 | 0.00 | 0.03 | 0.03 | 61 | 980.6 |
| 20260903234600 | 20 | 291 | 0.0 | 3.2 | 0.00 | 0.03 | 0.03 | 61 | 980.5 |
| 20260903234103 | 20 | 292 | 0.0 | 4.8 | 0.00 | 0.03 | 0.03 | 61 | 980.4 |
| 20260903233601 | 20 | 292 | 1.6 | 4.8 | 0.00 | 0.03 | 0.03 | 61 | 980.3 |
| 20260903233103 | 20 | 292 | 1.6 | 4.8 | 0.00 | 0.03 | 0.03 | 61 | 980.1 |
| 20260903232559 | 20 | 360 | 0.0 | 3.2 | 0.00 | 0.03 | 0.03 | 61 | 979.7 |
| 20260903232059 | 20 | 360 | 0.0 | 4.8 | 0.00 | 0.03 | 0.03 | 61 | 979.6 |
| 20260903231559 | 20 | 360 | 0.0 | 4.8 | 0.00 | 0.03 | 0.03 | 61 | 979.7 |
| 20260903231058 | 20 | 360 | 0.0 | 4.8 | 0.00 | 0.03 | 0.03 | 61 | 979.7 |
| 20260903230558 | 20 | 360 | 0.0 | 4.8 | 0.00 | 0.03 | 0.03 | 61 | 979.6 |
| 20260903230059 | 20 | 360 | 0.0 | 4.8 | 0.00 | 0.03 | 0.03 | 60 | 979.5 |
| 20260903225558 | 20 | 229 | 1.6 | 3.2 | 0.00 | 0.03 | 0.03 | 60 | 979.6 |
| 20260903225102 | 20 | 229 | 0.0 | 1.6 | 0.00 | 0.03 | 0.03 | 59 | 979.7 |
| 20260903224558 | 20 | 229 | 0.0 | 1.6 | 0.00 | 0.03 | 0.03 | 59 | 979.8 |
| 20260903224102 | 20 | 229 | 0.0 | 3.2 | 0.00 | 0.03 | 0.03 | 59 | 979.7 |
| 20260903223600 | 20 | 229 | 0.0 | 3.2 | 0.00 | 0.03 | 0.03 | 59 | 979.8 |
| 20260903223059 | 20 | 229 | 0.0 | 4.8 | 0.00 | 0.03 | 0.03 | 59 | 979.7 |
| 20260903222557 | 20 | 229 | 1.6 | 6.4 | 0.00 | 0.03 | 0.03 | 59 | 979.7 |
| 20260903222101 | 20 | 227 | 3.2 | 6.4 | 0.00 | 0.03 | 0.03 | 59 | 979.6 |
| 20260903221557 | 20 | 223 | 3.2 | 6.4 | 0.00 | 0.03 | 0.03 | 58 | 979.6 |
| 20260903221056 | 20 | 45 | 0.0 | 3.2 | 0.00 | 0.03 | 0.03 | 58 | 979.6 |
| 20260903220559 | 20 | 38 | 1.6 | 9.7 | 0.00 | 0.03 | 0.03 | 58 | 979.3 |
| 20260903220058 | 20 | 19 | 1.6 | 16.1 | 0.00 | 0.03 | 0.03 | 59 | 978.7 |
| 20260903215556 | 20 | 33 | 6.4 | 17.7 | 0.00 | 0.03 | 0.03 | 59 | 978.0 |
| 20260903215056 | 20 | 55 | 6.4 | 17.7 | 0.00 | 0.03 | 0.03 | 59 | 977.7 |
| 20260903214609 | 20 | 57 | 6.4 | 16.1 | 0.00 | 0.03 | 0.03 | 59 | 977.3 |
| 20260903214058 | 20 | 88 | 1.6 | 20.9 | 0.00 | 0.03 | 0.03 | 60 | 977.2 |
| 20260903213555 | 20 | 175 | 3.2 | 20.9 | 0.00 | 0.03 | 0.03 | 60 | 977.0 |
| 20260903213056 | 20 | 80 | 3.2 | 14.5 | 0.00 | 0.03 | 0.03 | 60 | 977.1 |
| 20260903212558 | 20 | 96 | 3.2 | 14.5 | 0.00 | 0.03 | 0.03 | 60 | 976.9 |
| 20260903212059 | 20 | 68 | 4.8 | 20.9 | 0.00 | 0.03 | 0.03 | 60 | 976.9 |
| 20260903211606 | 20 | 78 | 8.0 | 19.3 | 0.00 | 0.03 | 0.03 | 60 | 977.0 |
| 20260903211055 | 20 | 87 | 4.8 | 17.7 | 0.00 | 0.03 | 0.03 | 60 | 977.0 |
| 20260903210555 | 20 | 91 | 6.4 | 17.7 | 0.00 | 0.03 | 0.03 | 60 | 976.9 |
| 20260903210056 | 20 | 82 | 6.4 | 22.5 | 0.00 | 0.03 | 0.03 | 61 | 976.8 |
| 20260903205553 | 20 | 131 | 9.7 | 22.5 | 0.00 | 0.03 | 0.03 | 61 | 976.9 |
| 20260903205053 | 20 | 64 | 6.4 | 22.5 | 0.00 | 0.03 | 0.03 | 61 | 977.0 |
| 20260903204559 | 20 | 89 | 9.7 | 22.5 | 0.00 | 0.03 | 0.03 | 61 | 977.1 |
| 20260903204052 | 20 | 123 | 6.4 | 19.3 | 0.03 | 0.03 | 0.03 | 61 | 977.4 |
| 20260903203552 | 20 | 113 | 6.4 | 17.7 | 0.03 | 0.03 | 0.03 | 62 | 977.7 |
| 20260903203051 | 20 | 133 | 6.4 | 17.7 | 0.03 | 0.03 | 0.03 | 62 | 977.8 |
| 20260903202551 | 20 | 140 | 4.8 | 17.7 | 0.03 | 0.03 | 0.03 | 62 | 977.7 |
| 20260903202051 | 20 | 84 | 9.7 | 20.9 | 0.03 | 0.03 | 0.03 | 62 | 977.5 |
| 20260903201559 | 20 | 98 | 9.7 | 20.9 | 0.03 | 0.03 | 0.03 | 62 | 977.3 |
| 20260903201052 | 20 | 94 | 11.3 | 16.1 | 0.03 | 0.03 | 0.03 | 63 | 977.7 |
| 20260903200547 | 20 | 93 | 8.0 | 17.7 | 0.03 | 0.03 | 0.03 | 62 | 978.4 |
| 20260903200056 | 20 | 95 | 6.4 | 17.7 | 0.03 | 0.03 | 0.03 | 63 | 979.1 |
| 20260903195544 | 20 | 114 | 1.6 | 11.3 | 0.03 | 0.03 | 0.03 | 63 | 979.4 |
| 20260903195044 | 20 | 99 | 1.6 | 9.7 | 0.03 | 0.03 | 0.03 | 62 | 979.4 |
| 20260903194544 | 20 | 91 | 1.6 | 12.9 | 0.03 | 0.03 | 0.03 | 62 | 979.6 |
| 20260903194042 | 20 | 100 | 3.2 | 12.9 | 0.00 | 0.00 | 0.00 | 62 | 979.9 |
| 20260903193541 | 20 | 94 | 0.0 | 4.8 | 0.00 | 0.00 | 0.00 | 62 | 980.1 |
| 20260903193040 | 20 | 115 | 1.6 | 6.4 | 0.00 | 0.00 | 0.00 | 62 | 980.5 |
| 20260903192539 | 21 | 98 | 1.6 | 9.7 | 0.00 | 0.00 | 0.00 | 61 | 980.7 |
| 20260903192039 | 21 | 96 | 1.6 | 9.7 | 0.00 | 0.00 | 0.00 | 60 | 980.8 |
| 20260903191537 | 21 | 134 | 3.2 | 9.7 | 0.00 | 0.00 | 0.00 | 59 | 980.9 |
| 20260903191037 | 21 | 134 | 1.6 | 9.7 | 0.00 | 0.00 | 0.00 | 58 | 980.9 |
| 20260903190536 | 21 | 82 | 1.6 | 9.7 | 0.00 | 0.00 | 0.00 | 58 | 980.9 |
| 20260903190036 | 20 | 130 | 0.0 | 3.2 | 0.00 | 0.00 | 0.00 | 58 | 981.1 |
| 20260903185536 | 20 | 130 | 0.0 | 3.2 | 0.00 | 0.00 | 0.00 | 59 | 981.0 |
| 20260903185038 | 20 | 121 | 0.0 | 3.2 | 0.00 | 0.00 | 0.00 | 59 | 981.1 |
| 20260903184535 | 20 | 97 | 0.0 | 3.2 | 0.00 | 0.00 | 0.00 | 59 | 981.1 |
| 20260903184040 | 20 | 97 | 0.0 | 3.2 | 0.00 | 0.00 | 0.00 | 58 | 981.2 |
| 20260903183534 | 20 | 96 | 0.0 | 3.2 | 0.00 | 0.00 | 0.00 | 58 | 981.3 |
| 20260903183035 | 20 | 96 | 0.0 | 3.2 | 0.00 | 0.00 | 0.00 | 58 | 981.3 |
| 20260903182538 | 20 | 138 | 0.0 | 1.6 | 0.00 | 0.00 | 0.00 | 58 | 981.2 |
| 20260903182034 | 20 | 138 | 0.0 | 0.0 | 0.00 | 0.00 | 0.00 | 58 | 981.2 |
| 20260903181533 | 20 | 138 | 0.0 | 1.6 | 0.00 | 0.00 | 0.00 | 58 | 981.4 |
| 20260903181032 | 21 | 138 | 0.0 | 3.2 | 0.00 | 0.00 | 0.00 | 57 | 981.6 |
| 20260903180538 | 21 | 138 | 0.0 | 3.2 | 0.00 | 0.00 | 0.00 | 57 | 981.6 |
| 20260903180039 | 21 | 138 | 0.0 | 4.8 | 0.00 | 0.00 | 0.00 | 57 | 981.8 |
| 20260903175530 | 21 | 138 | 0.0 | 4.8 | 0.00 | 0.00 | 0.00 | 56 | 981.8 |
| 20260903175030 | 21 | 142 | 0.0 | 6.4 | 0.00 | 0.00 | 0.00 | 56 | 982.0 |
| 20260903174530 | 21 | 123 | 0.0 | 9.7 | 0.00 | 0.00 | 0.00 | 56 | 982.1 |
| 20260903174030 | 21 | 126 | 1.6 | 9.7 | 0.00 | 0.00 | 0.00 | 56 | 982.2 |
| 20260903173529 | 21 | 139 | 0.0 | 8.0 | 0.00 | 0.00 | 0.00 | 56 | 982.4 |
| 20260903173029 | 21 | 84 | 3.2 | 8.0 | 0.00 | 0.00 | 0.00 | 55 | 982.4 |
| 20260903172534 | 21 | 148 | 0.0 | 8.0 | 0.00 | 0.00 | 0.00 | 56 | 982.4 |
| 20260903172030 | 21 | 127 | 0.0 | 8.0 | 0.00 | 0.00 | 0.00 | 56 | 982.6 |
| 20260903171528 | 21 | 131 | 3.2 | 9.7 | 0.00 | 0.00 | 0.00 | 56 | 982.8 |
| 20260903171028 | 21 | 130 | 3.2 | 6.4 | 0.00 | 0.00 | 0.00 | 56 | 982.8 |
| 20260903170527 | 21 | 140 | 3.2 | 6.4 | 0.00 | 0.00 | 0.00 | 57 | 982.9 |
| 20260903170030 | 20 | 111 | 0.0 | 6.4 | 0.00 | 0.00 | 0.00 | 57 | 982.9 |
| 20260903165527 | 20 | 96 | 1.6 | 11.3 | 0.00 | 0.00 | 0.00 | 57 | 983.0 |
| 20260903165026 | 20 | 134 | 3.2 | 11.3 | 0.00 | 0.00 | 0.00 | 57 | 983.0 |
| 20260903164526 | 20 | 128 | 1.6 | 8.0 | 0.00 | 0.00 | 0.00 | 57 | 983.2 |
| 20260903164026 | 20 | 101 | 4.8 | 9.7 | 0.00 | 0.00 | 0.00 | 57 | 983.1 |
| 20260903163527 | 20 | 123 | 1.6 | 11.3 | 0.00 | 0.00 | 0.00 | 57 | 983.1 |
| 20260903163026 | 20 | 102 | 3.2 | 11.3 | 0.00 | 0.00 | 0.00 | 58 | 983.2 |
| 20260903162528 | 20 | 101 | 0.0 | 6.4 | 0.00 | 0.00 | 0.00 | 57 | 983.2 |
| 20260903162030 | 20 | 117 | 3.2 | 6.4 | 0.00 | 0.00 | 0.00 | 57 | 983.2 |
| 20260903161526 | 20 | 138 | 1.6 | 4.8 | 0.00 | 0.00 | 0.00 | 57 | 983.0 |
| 20260903161025 | 20 | 152 | 0.0 | 4.8 | 0.00 | 0.00 | 0.00 | 58 | 983.3 |
| 20260903160527 | 20 | 138 | 0.0 | 4.8 | 0.00 | 0.00 | 0.00 | 57 | 983.1 |
| 20260903160025 | 20 | 138 | 1.6 | 6.4 | 0.00 | 0.00 | 0.00 | 57 | 983.1 |